This is the latest recevied weather packets stored in our database for station/object wb2ifs-13. If no packets are shown the sender has not sent any weather packets the latest 10 day(s).
| Time | Temp. | Humidity | Pressure | Rain* | Wind** | Luminosity | Snow |
|---|---|---|---|---|---|---|---|
| 1777835698 | 16.67° C | 37% | 1016.2 hPa | 0 mm | - | - | - |
| 1777834799 | 16.67° C | 37% | 1016.4 hPa | 0 mm | - | - | - |
| 1777833899 | 16.11° C | 34% | 1016.5 hPa | 0 mm | - | - | - |
| 1777833000 | 16.11° C | 37% | 1016.6 hPa | 0 mm | - | - | - |
| 1777832098 | 16.11° C | 35% | 1016.8 hPa | 0 mm | - | - | - |
| 1777831199 | 15.56° C | 35% | 1016.8 hPa | 0 mm | - | - | - |
| 1777830300 | 15.56° C | 37% | 1016.9 hPa | 0 mm | - | - | - |
| 1777829399 | 15° C | 36% | 1016.9 hPa | 0 mm | - | - | - |
| 1777828499 | 15° C | 38% | 1017 hPa | 0 mm | - | - | - |
| 1777827601 | 14.44° C | 38% | 1017.3 hPa | 0 mm | - | - | - |
| 1777826699 | 15° C | 38% | 1017.3 hPa | 0 mm | - | - | - |
| 1777825798 | 13.89° C | 39% | 1017.5 hPa | 0 mm | - | - | - |
| 1777824899 | 13.89° C | 39% | 1017.6 hPa | 0 mm | - | - | - |
| 1777824001 | 13.33° C | 39% | 1017.5 hPa | 0 mm | - | - | - |
| 1777823101 | 13.33° C | 42% | 1017.7 hPa | 0 mm | - | - | - |
| 1777822200 | 12.78° C | 41% | 1017.9 hPa | 0 mm | - | - | - |
| 1777821300 | 12.78° C | 41% | 1017.9 hPa | 0 mm | - | - | - |
| 1777820400 | 12.22° C | 42% | 1017.9 hPa | 0 mm | - | - | - |
| 1777819499 | 11.67° C | 42% | 1017.8 hPa | 0 mm | - | - | - |
| 1777818598 | 11.11° C | 46% | 1017.9 hPa | 0 mm | - | - | - |
| 1777817698 | 11.11° C | 47% | 1017.9 hPa | 0 mm | - | - | - |
| 1777816799 | 10° C | 49% | 1017.9 hPa | 0 mm | - | - | - |
| 1777815899 | 9.44° C | 53% | 1018.1 hPa | 0 mm | - | - | - |
| 1777814998 | 8.89° C | 54% | 1018 hPa | 0 mm | - | - | - |
| 1777814099 | 8.33° C | 54% | 1018 hPa | 0 mm | - | - | - |
* Rain latest hour (hover to see other rain measurements)
** Current wind speed in m/s (hover to see current wind gust speed)